DW5861 Weather Reports


Display with metric or nautical units.
time (UTC)temp
F
wind
direction
speed
MPH
gust
MPH
rain 1hr
in
rain 24hr
in
rain mn
in
humidity
%
barometer
mb
20260831230004 96 131 1.0 5.0 0.00 0.00 0.00 48 1012.3
20260831225504 96 36 1.0 4.0 0.00 0.00 0.00 49 1012.3
20260831225004 96 31 2.0 4.0 0.00 0.00 0.00 49 1012.3
20260831224504 96 33 1.0 4.0 0.00 0.00 0.00 50 1012.3
20260831224004 96 34 1.0 4.0 0.00 0.00 0.00 49 1012.3
20260831223504 96 40 2.0 5.0 0.00 0.00 0.00 49 1012.3
20260831223004 97 114 2.0 5.0 0.00 0.00 0.00 48 1012.3
20260831222504 97 62 2.0 6.0 0.00 0.00 0.00 48 1012.3
20260831222004 97 29 2.0 6.0 0.00 0.00 0.00 48 1012.4
20260831221504 98 35 3.0 6.0 0.00 0.00 0.00 46 1012.4
20260831221004 99 56 3.0 7.0 0.00 0.00 0.00 45 1012.5
20260831220504 99 52 3.0 7.0 0.00 0.00 0.00 45 1012.4
20260831220004 99 30 3.0 7.0 0.00 0.00 0.00 45 1012.4
20260831215504 100 75 3.0 7.0 0.00 0.00 0.00 44 1012.4
20260831215004 101 100 3.0 7.0 0.00 0.00 0.00 44 1012.5
20260831214504 100 54 3.0 11.0 0.00 0.00 0.00 45 1012.5
20260831214004 100 83 4.0 11.0 0.00 0.00 0.00 43 1012.6
20260831213504 100 126 4.0 11.0 0.00 0.00 0.00 43 1012.6
20260831213004 100 100 3.0 10.0 0.00 0.00 0.00 45 1012.7
20260831212504 100 125 3.0 10.0 0.00 0.00 0.00 45 1012.7
20260831212004 101 146 2.0 6.0 0.00 0.00 0.00 43 1012.7
20260831211504 99 163 2.0 5.0 0.00 0.00 0.00 46 1012.9
20260831211025 98 171 2.0 6.0 0.00 0.00 0.00 45 1012.9
20260831210504 99 157 2.0 6.0 0.00 0.00 0.00 47 1013.0
20260831210004 99 142 2.0 6.0 0.00 0.00 0.00 46 1013.2
20260831205504 99 114 3.0 9.0 0.00 0.00 0.00 45 1013.2
20260831205004 100 81 3.0 9.0 0.00 0.00 0.00 44 1013.3
20260831204525 100 48 3.0 8.0 0.00 0.00 0.00 43 1013.3
20260831204004 101 64 3.0 8.0 0.00 0.00 0.00 44 1013.4
20260831203504 99 53 2.0 6.0 0.00 0.00 0.00 46 1013.4
20260831203004 97 66 2.0 4.0 0.00 0.00 0.00 49 1013.5
20260831202504 97 103 2.0 5.0 0.00 0.00 0.00 49 1013.6
20260831202004 98 109 3.0 7.0 0.00 0.00 0.00 48 1013.7
20260831201504 99 114 4.0 8.0 0.00 0.00 0.00 46 1013.6
20260831201004 101 108 3.0 8.0 0.00 0.00 0.00 45 1013.7
20260831200504 100 72 3.0 7.0 0.00 0.00 0.00 48 1013.7
20260831200004 98 12 3.0 6.0 0.00 0.00 0.00 48 1013.8
20260831195504 98 38 3.0 7.0 0.00 0.00 0.00 47 1013.9
20260831195004 98 120 3.0 7.0 0.00 0.00 0.00 50 1014.0
20260831194504 96 96 3.0 5.0 0.00 0.00 0.00 49 1014.0
20260831194004 96 162 3.0 8.0 0.00 0.00 0.00 53 1014.1
20260831193504 98 145 3.0 8.0 0.00 0.00 0.00 50 1014.3
20260831193004 96 92 3.0 7.0 0.00 0.00 0.00 51 1014.4
20260831192504 98 97 2.0 7.0 0.00 0.00 0.00 51 1014.5
20260831192004 98 129 3.0 6.0 0.00 0.00 0.00 48 1014.5
20260831191504 100 127 3.0 7.0 0.00 0.00 0.00 47 1014.5
20260831191004 99 139 3.0 7.0 0.00 0.00 0.00 47 1014.6
20260831190504 100 145 2.0 7.0 0.00 0.00 0.00 47 1014.7
20260831190004 98 82 2.0 5.0 0.00 0.00 0.00 50 1014.9
20260831185504 98 152 4.0 11.0 0.00 0.00 0.00 47 1015.0
20260831185025 99 172 4.0 11.0 0.00 0.00 0.00 48 1014.9
20260831184504 97 100 3.0 6.0 0.00 0.00 0.00 50 1014.9
20260831184004 98 118 3.0 6.0 0.00 0.00 0.00 50 1015.0
20260831183504 98 165 3.0 6.0 0.00 0.00 0.00 49 1015.0
20260831183025 97 153 3.0 6.0 0.00 0.00 0.00 54 1015.1
20260831182504 96 86 3.0 5.0 0.00 0.00 0.00 52 1015.2
20260831182004 96 59 2.0 6.0 0.00 0.00 0.00 51 1015.3
20260831181525 97 146 3.0 7.0 0.00 0.00 0.00 50 1015.3
20260831181004 99 157 4.0 8.0 0.00 0.00 0.00 48 1015.4
20260831180525 99 139 3.0 8.0 0.00 0.00 0.00 48 1015.4
20260831180004 98 87 2.0 8.0 0.00 0.00 0.00 51 1015.5
20260831175504 96 129 3.0 8.0 0.00 0.00 0.00 53 1015.5
20260831175004 97 147 3.0 7.0 0.00 0.00 0.00 51 1015.5
20260831174504 97 111 3.0 7.0 0.00 0.00 0.00 53 1015.7
20260831174025 97 58 3.0 7.0 0.00 0.00 0.00 52 1015.7
20260831173525 95 33 3.0 7.0 0.00 0.00 0.00 53 1015.8
20260831173004 96 110 3.0 8.0 0.00 0.00 0.00 55 1015.9
20260831172504 98 132 3.0 9.0 0.00 0.00 0.00 51 1015.9
20260831172004 96 154 4.0 9.0 0.00 0.00 0.00 53 1016.0
20260831171504 97 135 3.0 8.0 0.00 0.00 0.00 54 1016.1
20260831171004 96 66 3.0 8.0 0.00 0.00 0.00 53 1016.1
20260831170504 96 148 3.0 8.0 0.00 0.00 0.00 56 1016.2
20260831170004 95 147 3.0 8.0 0.00 0.00 0.00 55 1016.2
20260831165504 96 105 3.0 7.0 0.00 0.00 0.00 55 1016.3
20260831165004 96 109 3.0 7.0 0.00 0.00 0.00 55 1016.3
20260831164504 95 136 3.0 7.0 0.00 0.00 0.00 56 1016.4
20260831164004 94 93 3.0 7.0 0.00 0.00 0.00 54 1016.4
20260831163504 93 61 3.0 7.0 0.00 0.00 0.00 57 1016.4
20260831163004 94 125 3.0 7.0 0.00 0.00 0.00 56 1016.5
20260831162504 94 69 3.0 9.0 0.00 0.00 0.00 60 1016.4
20260831162004 94 65 3.0 9.0 0.00 0.00 0.00 59 1016.6
20260831161504 94 146 3.0 7.0 0.00 0.00 0.00 60 1016.5
20260831161025 93 160 2.0 8.0 0.00 0.00 0.00 60 1016.6
20260831160504 93 238 2.0 8.0 0.00 0.00 0.00 62 1016.6
20260831160004 92 200 3.0 6.0 0.00 0.00 0.00 63 1016.6
20260831155525 92 137 3.0 6.0 0.00 0.00 0.00 63 1016.6
20260831155025 90 24 2.0 4.0 0.00 0.00 0.00 65 1016.6
20260831154504 90 343 3.0 4.0 0.00 0.00 0.00 66 1016.6
20260831154004 90 352 2.0 4.0 0.00 0.00 0.00 66 1016.7
20260831153504 90 49 2.0 4.0 0.00 0.00 0.00 68 1016.6
20260831153004 90 74 2.0 5.0 0.00 0.00 0.00 66 1016.6
20260831152504 90 69 2.0 5.0 0.00 0.00 0.00 65 1016.6
20260831152004 90 35 2.0 4.0 0.00 0.00 0.00 68 1016.5
20260831151504 89 54 2.0 5.0 0.00 0.00 0.00 67 1016.6
20260831151004 89 57 3.0 5.0 0.00 0.00 0.00 67 1016.6
20260831150504 89 73 2.0 4.0 0.00 0.00 0.00 69 1016.6
20260831150004 88 90 2.0 4.0 0.00 0.00 0.00 70 1016.6
20260831145525 88 75 2.0 5.0 0.00 0.00 0.00 70 1016.6
20260831145004 88 92 2.0 5.0 0.00 0.00 0.00 72 1016.6
20260831144504 88 149 2.0 5.0 0.00 0.00 0.00 73 1016.6
20260831144004 87 167 2.0 5.0 0.00 0.00 0.00 74 1016.6
20260831143504 86 100 1.0 3.0 0.00 0.00 0.00 77 1016.5
20260831143004 85 49 2.0 3.0 0.00 0.00 0.00 77 1016.5
20260831142504 84 356 1.0 3.0 0.00 0.00 0.00 79 1016.6
20260831142025 84 91 1.0 2.0 0.00 0.00 0.00 80 1016.5
20260831141504 83 135 1.0 3.0 0.00 0.00 0.00 80 1016.5
20260831141004 82 96 1.0 3.0 0.00 0.00 0.00 82 1016.4
20260831140504 81 356 1.0 4.0 0.00 0.00 0.00 84 1016.4
20260831140004 80 345 1.0 4.0 0.00 0.00 0.00 86 1016.4
20260831135504 79 352 1.0 2.0 0.00 0.00 0.00 87 1016.3
20260831135004 78 359 1.0 2.0 0.00 0.00 0.00 88 1016.4
20260831134504 77 51 1.0 3.0 0.00 0.00 0.00 88 1016.4
20260831134004 77 116 1.0 3.0 0.00 0.00 0.00 89 1016.3
20260831133504 76 111 0.0 2.0 0.00 0.00 0.00 89 1016.3
20260831133004 75 104 1.0 2.0 0.00 0.00 0.00 89 1016.3
20260831132525 75 160 0.0 2.0 0.00 0.00 0.00 89 1016.2
20260831132004 75 128 0.0 2.0 0.00 0.00 0.00 89 1016.2
20260831131504 75 76 0.0 1.0 0.00 0.00 0.00 89 1016.2
20260831131004 74 1 0.0 1.0 0.00 0.00 0.00 89 1016.1
20260831130504 74 14 0.0 1.0 0.00 0.00 0.00 89 1016.0
20260831130004 74 29 1.0 2.0 0.00 0.00 0.00 89 1015.9
20260831125504 74 38 0.0 2.0 0.00 0.00 0.00 89 1015.9
20260831125004 74 86 1.0 1.0 0.00 0.00 0.00 89 1015.8
20260831124504 74 70 1.0 2.0 0.00 0.00 0.00 89 1015.7
20260831124004 73 9 1.0 2.0 0.00 0.00 0.00 89 1015.6
20260831123504 73 336 1.0 1.0 0.00 0.00 0.00 89 1015.5
20260831123003 73 330 1.0 1.0 0.00 0.00 0.00 89 1015.4
20260831122503 73 329 0.0 1.0 0.00 0.00 0.00 89 1015.5
20260831122004 73 346 0.0 1.0 0.00 0.00 0.00 88 1015.5
20260831121504 73 20 0.0 1.0 0.00 0.00 0.00 88 1015.5
20260831121003 73 301 0.0 1.0 0.00 0.00 0.00 88 1015.3
20260831120503 73 347 0.0 1.0 0.00 0.00 0.00 88 1015.3
20260831120004 73 329 0.0 1.0 0.00 0.00 0.00 88 1015.2
20260831115525 73 293 0.0 1.0 0.00 0.00 0.00 88 1015.1
20260831115004 73 331 0.0 1.0 0.00 0.00 0.00 88 1015.1
20260831114504 74 324 0.0 1.0 0.00 0.00 0.00 88 1015.0
20260831114004 74 321 0.0 1.0 0.00 0.00 0.00 88 1015.0
20260831113504 74 356 0.0 1.0 0.00 0.00 0.00 88 1014.9
20260831113004 74 350 0.0 1.0 0.00 0.00 0.00 88 1014.9
20260831112525 74 340 0.0 1.0 0.00 0.00 0.00 88 1014.9
20260831112004 74 249 0.0 1.0 0.00 0.00 0.00 88 1014.8
20260831111504 74 256 0.0 1.0 0.00 0.00 0.00 87 1014.7
20260831111004 74 19 0.0 1.0 0.00 0.00 0.00 87 1014.6
20260831110504 74 99 0.0 1.0 0.00 0.00 0.00 87 1014.6
20260831110003 74 103 0.0 1.0 0.00 0.00 0.00 87 1014.7
20260831105503 74 106 0.0 1.0 0.00 0.00 0.00 87 1014.7
20260831105003 74 310 0.0 1.0 0.00 0.00 0.00 87 1014.7
20260831104525 74 312 0.0 1.0 0.00 0.00 0.00 87 1014.7
20260831104003 75 308 0.0 1.0 0.00 0.00 0.00 87 1014.7
20260831103504 75 312 0.0 1.0 0.00 0.00 0.00 87 1014.7
20260831103004 75 110 0.0 1.0 0.00 0.00 0.00 87 1014.8
20260831102524 75 127 0.0 1.0 0.00 0.00 0.00 87 1014.8
20260831102003 75 136 0.0 1.0 0.00 0.00 0.00 87 1014.8
20260831101504 75 143 0.0 1.0 0.00 0.00 0.00 87 1014.7
20260831101003 75 213 0.0 1.0 0.00 0.00 0.00 86 1014.6
20260831100504 75 214 1.0 2.0 0.00 0.00 0.00 86 1014.6
20260831100003 75 215 1.0 2.0 0.00 0.00 0.00 86 1014.6
20260831095504 76 214 1.0 2.0 0.00 0.00 0.00 86 1014.7
20260831095024 76 212 1.0 2.0 0.00 0.00 0.00 86 1014.7
20260831094504 76 208 1.0 2.0 0.00 0.00 0.00 85 1014.7
20260831094024 76 197 1.0 2.0 0.00 0.00 0.00 85 1014.6
20260831093524 76 163 1.0 2.0 0.00 0.00 0.00 85 1014.5
20260831093024 76 137 0.0 1.0 0.00 0.00 0.00 85 1014.4
20260831092503 76 104 0.0 1.0 0.00 0.00 0.00 85 1014.4
20260831092004 76 125 0.0 1.0 0.00 0.00 0.00 84 1014.4
20260831091524 77 176 0.0 1.0 0.00 0.00 0.00 84 1014.4
20260831091024 77 227 0.0 1.0 0.00 0.00 0.00 84 1014.4
20260831090503 77 188 0.0 1.0 0.00 0.00 0.00 84 1014.5
20260831090004 77 204 0.0 1.0 0.00 0.00 0.00 84 1014.4
20260831085503 77 213 0.0 1.0 0.00 0.00 0.00 84 1014.5
20260831085004 77 215 0.0 1.0 0.00 0.00 0.00 83 1014.5
20260831084503 77 203 1.0 2.0 0.00 0.00 0.00 83 1014.4
20260831084003 77 207 1.0 2.0 0.00 0.00 0.00 83 1014.5
20260831083503 77 198 1.0 2.0 0.00 0.00 0.00 83 1014.5
20260831083003 78 183 1.0 2.0 0.00 0.00 0.00 83 1014.5
20260831082503 78 199 1.0 2.0 0.00 0.00 0.00 82 1014.4
20260831082003 78 207 1.0 2.0 0.00 0.00 0.00 82 1014.5
20260831081503 78 185 1.0 2.0 0.00 0.00 0.00 82 1014.6
20260831081003 78 178 1.0 2.0 0.00 0.00 0.00 82 1014.6
20260831080524 78 200 1.0 2.0 0.00 0.00 0.00 82 1014.6
20260831080004 78 188 1.0 5.0 0.00 0.00 0.00 81 1014.7
20260831075503 78 178 1.0 5.0 0.00 0.00 0.00 81 1014.6
20260831075003 78 174 2.0 5.0 0.00 0.00 0.00 81 1014.6
20260831074503 78 162 2.0 5.0 0.00 0.00 0.00 81 1014.6
20260831074024 78 156 2.0 4.0 0.00 0.00 0.00 81 1014.6
20260831073524 78 161 2.0 5.0 0.00 0.00 0.00 81 1014.6
20260831073003 78 166 1.0 5.0 0.00 0.00 0.00 80 1014.5
20260831072503 79 191 0.0 1.0 0.00 0.00 0.00 80 1014.5
20260831072004 79 183 1.0 2.0 0.00 0.00 0.00 79 1014.5
20260831071503 79 184 1.0 2.0 0.00 0.00 0.00 79 1014.6
20260831071003 79 194 0.0 1.0 0.00 0.00 0.00 79 1014.6
20260831070503 79 151 0.0 1.0 0.00 0.00 0.00 79 1014.7
20260831070003 79 147 0.0 2.0 0.00 0.00 0.00 78 1014.7
20260831065524 79 151 0.0 2.0 0.00 0.00 0.00 78 1014.7
20260831065003 80 187 1.0 1.0 0.00 0.00 0.00 78 1014.6
20260831064503 80 211 1.0 2.0 0.00 0.00 0.00 77 1014.6
20260831064003 80 211 1.0 2.0 0.00 0.00 0.00 77 1014.7
20260831063503 80 189 1.0 2.0 0.00 0.00 0.00 77 1014.7
20260831063003 80 197 1.0 2.0 0.00 0.00 0.00 77 1014.7
20260831062503 80 191 1.0 2.0 0.00 0.00 0.00 76 1014.8
20260831062003 80 189 1.0 2.0 0.00 0.00 0.00 76 1014.8
20260831061503 81 197 1.0 3.0 0.00 0.00 0.00 76 1014.8
20260831061003 81 195 1.0 3.0 0.00 0.00 0.00 75 1014.8
20260831060503 81 186 1.0 2.0 0.00 0.00 0.00 75 1014.8
20260831060003 81 194 1.0 2.0 0.00 0.00 0.00 74 1014.8
20260831055503 81 202 1.0 2.0 0.00 0.00 0.00 74 1014.8
20260831055004 81 201 1.0 2.0 0.00 0.00 0.00 74 1014.8
20260831054503 81 194 1.0 2.0 0.00 0.00 0.00 74 1014.7
20260831054003 82 181 1.0 3.0 0.00 0.00 0.00 74 1014.8
20260831053524 82 176 1.0 4.0 0.00 0.00 0.00 74 1014.8
20260831053003 82 179 1.0 4.0 0.00 0.00 0.00 73 1014.8
20260831052503 82 187 1.0 3.0 0.00 0.00 0.00 73 1014.8
20260831052003 82 179 1.0 3.0 0.00 0.00 0.00 73 1014.8
20260831051503 82 171 1.0 3.0 0.00 0.00 0.00 73 1014.7
20260831051003 82 165 1.0 3.0 0.00 0.00 0.00 72 1014.6
20260831050524 82 147 1.0 4.0 0.00 0.00 0.00 72 1014.7
20260831050003 83 145 2.0 4.0 0.00 0.00 0.00 72 1014.6
20260831045503 83 160 2.0 3.0 0.00 0.00 0.00 72 1014.6
20260831045003 83 150 1.0 3.0 0.00 0.00 0.00 72 1014.7
20260831044504 83 145 1.0 3.0 0.00 0.00 0.00 71 1014.8
20260831044003 83 147 1.0 3.0 0.00 0.00 0.00 71 1014.7
20260831043503 83 166 2.0 3.0 0.00 0.00 0.00 71 1014.7
20260831043003 83 158 2.0 3.0 0.00 0.00 0.00 71 1014.6
20260831042503 84 112 1.0 3.0 0.00 0.00 0.00 71 1014.6
20260831042024 84 150 1.0 5.0 0.00 0.00 0.00 70 1014.5
20260831041503 84 106 2.0 5.0 0.00 0.00 0.00 70 1014.4
20260831041003 84 71 2.0 4.0 0.00 0.00 0.00 70 1014.6
20260831040503 84 78 1.0 3.0 0.00 0.00 0.00 70 1014.5
20260831040003 84 141 1.0 2.0 0.00 0.00 0.00 69 1014.3
20260831035503 84 178 1.0 2.0 0.00 0.00 0.00 69 1014.2
20260831035003 84 200 1.0 2.0 0.00 0.00 0.00 68 1014.1
20260831034503 85 182 1.0 2.0 0.00 0.00 0.00 68 1014.0
20260831034003 85 156 1.0 4.0 0.00 0.00 0.00 68 1014.0
20260831033503 85 149 1.0 4.0 0.00 0.00 0.00 67 1013.9
20260831033003 85 152 1.0 3.0 0.00 0.00 0.00 66 1013.9
20260831032503 85 163 1.0 3.0 0.00 0.00 0.00 66 1013.7
20260831032003 86 174 1.0 3.0 0.00 0.00 0.00 66 1013.7
20260831031503 86 154 2.0 4.0 0.00 0.00 0.00 65 1013.6
20260831031003 86 155 1.0 4.0 0.00 0.00 0.00 64 1013.5
20260831030524 86 176 1.0 3.0 0.00 0.00 0.00 64 1013.4
20260831030003 86 176 1.0 3.0 0.00 0.00 0.00 63 1013.2
20260831025503 86 165 1.0 2.0 0.00 0.00 0.00 62 1013.2
20260831025003 86 164 2.0 3.0 0.00 0.00 0.00 61 1013.2
20260831024503 87 173 2.0 3.0 0.00 0.00 0.00 61 1013.2
20260831024003 87 174 2.0 3.0 0.00 0.00 0.00 60 1013.1
20260831023503 87 175 2.0 4.0 0.00 0.00 0.00 58 1013.0
20260831023003 87 185 2.0 4.0 0.00 0.00 0.00 59 1012.9
20260831022503 87 186 2.0 4.0 0.00 0.00 0.00 59 1012.8
20260831022024 87 170 1.0 2.0 0.00 0.00 0.00 58 1012.6
20260831021504 88 93 1.0 2.0 0.00 0.00 0.00 58 1012.5
20260831021003 88 107 1.0 2.0 0.00 0.00 0.00 57 1012.4
20260831020503 88 166 1.0 3.0 0.00 0.00 0.00 56 1012.4
20260831020003 88 193 1.0 4.0 0.00 0.00 0.00 56 1012.3
20260831015503 88 200 1.0 4.0 0.00 0.00 0.00 55 1012.2
20260831015003 89 168 1.0 2.0 0.00 0.00 0.00 54 1012.2
20260831014503 89 173 1.0 2.0 0.00 0.00 0.00 54 1012.1
20260831014003 89 165 1.0 2.0 0.00 0.00 0.00 52 1012.1
20260831013524 90 141 0.0 2.0 0.00 0.00 0.00 51 1012.0
20260831013003 90 140 0.0 1.0 0.00 0.00 0.00 50 1012.0
20260831012503 90 160 0.0 2.0 0.00 0.00 0.00 48 1012.0
20260831012003 91 181 1.0 2.0 0.00 0.00 0.00 48 1011.9
20260831011503 91 187 1.0 2.0 0.00 0.00 0.00 47 1011.9
20260831011003 92 182 1.0 2.0 0.00 0.00 0.00 46 1011.9
20260831010524 92 180 1.0 2.0 0.00 0.00 0.00 46 1011.8
20260831010003 92 185 1.0 3.0 0.00 0.00 0.00 45 1011.8
20260831005503 93 191 2.0 3.0 0.00 0.00 0.00 43 1011.8
20260831005003 93 188 2.0 4.0 0.00 0.00 0.00 42 1011.8
20260831004503 94 183 1.0 4.0 0.00 0.00 0.00 41 1011.8
20260831004003 94 174 1.0 2.0 0.00 0.00 0.00 41 1011.8
20260831003503 95 144 1.0 2.0 0.00 0.00 0.00 39 1011.7
20260831003003 95 122 1.0 2.0 0.00 0.00 0.00 39 1011.8
20260831002525 96 122 1.0 2.0 0.00 0.00 0.00 38 1011.7
20260831002004 96 124 1.0 2.0 0.00 0.00 0.00 38 1011.7
20260831001504 96 98 1.0 2.0 0.00 0.00 0.00 38 1011.6
20260831001004 97 98 1.0 2.0 0.00 0.00 0.00 38 1011.6
20260831000504 97 100 1.0 3.0 0.00 0.00 0.00 38 1011.6
20260831000004 97 135 1.0 5.0 0.00 0.00 0.00 38 1011.7
20260830235504 97 160 1.0 5.0 0.00 0.00 0.00 39 1011.7
20260830235025 97 152 1.0 3.0 0.00 0.00 0.00 39 1011.7
20260830234525 97 100 1.0 4.0 0.00 0.00 0.00 40 1011.7
20260830234025 98 128 2.0 4.0 0.00 0.00 0.00 41 1011.7
20260830233525 98 160 2.0 5.0 0.00 0.00 0.00 41 1011.7
20260830233004 98 168 3.0 5.0 0.00 0.00 0.00 42 1011.7
20260830232504 98 155 2.0 5.0 0.00 0.00 0.00 41 1011.6
20260830232004 98 133 2.0 5.0 0.00 0.00 0.00 40 1011.8
20260830231504 98 119 1.0 5.0 0.00 0.00 0.00 40 1011.8
20260830231004 99 128 2.0 4.0 0.00 0.00 0.00 40 1011.8
20260830230525 99 166 3.0 7.0 0.00 0.00 0.00 40 1011.8